Comox, British Columbia

5:21 AM PDT on June 29, 2017 (GMT -0700)
Comox

Weather History for CYQQ - July, 2013

Change the Weather History Date:

Friday, July 12, 2013

  Actual Average Record
Temperature  
Mean Temperature 64 °F -  
Max Temperature 72 °F 72 °F 81 °F (2014)
Min Temperature 55 °F 54 °F 51 °F (2000)
Degree Days  
Heating Degree Days 2    
Growing Degree Days 14 (Base 50)    
Moisture  
Dew Point 47 °F    
Average Humidity 57    
Maximum Humidity 77    
Minimum Humidity 28    
Precipitation  
Precipitation 0.00 in 0.04 in - ()
Sea Level Pressure  
Sea Level Pressure 30.04 in    
Wind  
Wind Speed 8 mph ()    
Max Wind Speed 18 mph    
Max Gust Speed 20 mph    
Visibility 19.9 miles    
Events      
Averages and records for this station are not official NWS values.
T = Trace of Precipitation, MM = Missing Value Source: Averaged Metar Reports

Daily Weather History Graph

Daily Weather History Graph

Search for Another Location

Airport or City:

Trip Planner

Search our weather history database for the weather conditions in past years. The results will help you decide how hot, cold, wet, or windy it might be!

Date:

Astronomy

Jul. 12, 2013 Rise Set
Actual Time 5:25 AM PDT 9:24 PM PDT
Civil Twilight 4:43 AM PDT 10:06 PM PDT
Nautical Twilight 3:44 AM PDT 11:04 PM PDT
Astronomical Twilight 1:57 AM PDT 12:47 AM PDT
Moon 10:18 AM PDT (7/12) 11:04 PM PDT (7/12)
Length of Visible Light 17h 22m
Length of Day
15h 58m
Waxing Crescent, 18% of the Moon is Illuminated
Jul 12
Waxing Crescent
Jul 15
First Quarter
Jul 22
Full
Jul 29
Last Quarter
Aug 6
New

Hourly Weather History & Observations

Time (PDT) Temp. Dew Point Humidity Pressure Visibility Wind Dir Wind Speed Gust Speed Precip Events Conditions
12:00 AM 57.2 °F 50.0 °F 77% 30.04 in 20.0 mi WNW 5.8 mph - N/A   Mostly Cloudy
1:00 AM 59.0 °F 46.4 °F 63% 30.04 in 20.0 mi NW 8.1 mph - N/A   Mostly Cloudy
2:00 AM 59.0 °F 46.4 °F 63% 30.04 in 20.0 mi NW 8.1 mph - N/A   Mostly Cloudy
3:00 AM 57.2 °F 46.4 °F 67% 30.04 in 20.0 mi NW 5.8 mph - N/A   Mostly Cloudy
4:00 AM 57.2 °F 46.4 °F 67% 30.04 in 20.0 mi NNW 11.5 mph - N/A   Mostly Cloudy
5:00 AM 56 °F 47 °F 63% 30.04 in 19 mi NNW 10.4 mph - -   Mostly Cloudy
5:00 AM 55.4 °F 46.4 °F 72% 30.04 in 20.0 mi NNW 11.5 mph - N/A   Mostly Cloudy
6:00 AM 55.4 °F 48.2 °F 77% 30.04 in 20.0 mi NNW 10.4 mph - N/A   Mostly Cloudy
7:00 AM 55.4 °F 46.4 °F 72% 30.04 in 20.0 mi NW 11.5 mph 19.6 mph N/A   Mostly Cloudy
8:00 AM 57.2 °F 46.4 °F 67% 30.04 in 20.0 mi NNW 18.4 mph - N/A   Mostly Cloudy
9:00 AM 57.2 °F 48.2 °F 72% 30.04 in 20.0 mi NNW 15.0 mph - N/A   Mostly Cloudy
10:00 AM 60.8 °F 48.2 °F 63% 30.05 in 20.0 mi NNW 11.5 mph 17.3 mph N/A   Mostly Cloudy
11:00 AM 62.6 °F 50.0 °F 63% 30.04 in 20.0 mi North 10.4 mph - N/A   Mostly Cloudy
12:00 PM 64.4 °F 48.2 °F 56% 30.04 in 20.0 mi NNW 10.4 mph - N/A   Scattered Clouds
1:00 PM 64.4 °F 48.2 °F 56% 30.04 in 20.0 mi NNE 9.2 mph - N/A   Partly Cloudy
2:00 PM 68.0 °F 46.4 °F 46% 30.04 in 20.0 mi NNE 9.2 mph - N/A   Partly Cloudy
3:00 PM 68.0 °F 46.4 °F 46% 30.04 in 20.0 mi NNE 6.9 mph - N/A   Partly Cloudy
4:00 PM 69.8 °F 44.6 °F 40% 30.03 in 20.0 mi NNE 6.9 mph - N/A   Partly Cloudy
5:00 PM 71 °F 45 °F 28% 30.03 in 19 mi North 15.7 mph - -   Scattered Clouds
5:00 PM 71.6 °F 44.6 °F 38% 30.03 in 20.0 mi North 6.9 mph - N/A   Partly Cloudy
6:00 PM 69.8 °F 44.6 °F 40% 30.02 in 20.0 mi North 6.9 mph - N/A   Partly Cloudy
7:00 PM 69.8 °F 42.8 °F 38% 30.02 in 20.0 mi North 5.8 mph - N/A   Partly Cloudy
8:00 PM 69.8 °F 50.0 °F 49% 30.03 in 20.0 mi SW 5.8 mph - N/A   Partly Cloudy
9:00 PM 68.0 °F 50.0 °F 52% 30.04 in 20.0 mi NW 4.6 mph - N/A   Scattered Clouds
10:00 PM 62.6 °F 46.4 °F 55% 30.07 in 20.0 mi North 8.1 mph - N/A   Partly Cloudy
11:00 PM 62 °F 46 °F 44% 30.08 in 19 mi West 2.3 mph - -   Scattered Clouds
11:00 PM 62.6 °F 46.4 °F 55% 30.08 in 20.0 mi West 3.5 mph - N/A   Partly Cloudy